Regional Weather Roundup
Issued by NWS

Home | Current Version | Previous Version | Text Only | Print | Product List | Glossary On
Versions: 1 2 3 4 5 6 7 8 9 10 11 12 13 14 15 16 17 18 19 20 21 22 23 24 25 26 27 28 29 30 31 32 33 34 35 36 37 38 39 40 41 42 43 44 45 46 47 48 49 50
000
ASUS43 KDMX 031707
RWRIA

WEATHER ROUNDUP FOR IOWA
NATIONAL WEATHER SERVICE DES MOINES IA
1200 PM CDT FRI JUL 03 2015

NOTE: "FAIR" INDICATES FEW OR NO CLOUDS BELOW 12,000 FEET WITH NO
SIGNIFICANT WEATHER AND/OR OBSTRUCTIONS TO VISIBILITY.

* - THESE STATIONS ARE NOT NWS STATIONS...THUS NOT UNDER NWS
QUALITY CONTROL.  THEY ALSO DO NOT REPORT WEATHER SUCH
AS PRECIPITATION OR FOG.

IAZ001>003-012>014-020>022-031>034-043>046-031800-
   NORTHWEST IOWA

CITY           SKY/WX    TMP DP  RH WIND       PRES   REMARKS
CARROLL *      SUNNY     70  54  56 CALM      30.03S
CHEROKEE *     SUNNY     70  55  60 CALM      30.02F
DENISON *      SUNNY     70  55  60 CALM      30.01F
LE MARS *      SUNNY     70  54  56 CALM      30.03F
ORANGE CITY *  SUNNY     68  55  64 CALM      30.02F
SHELDON *      SUNNY     70  61  73 CALM      30.01S
SIOUX CITY     SUNNY     73  57  57 CALM      30.02F
SPENCER        SUNNY     73  55  53 W6        30.02F
STORM LAKE *   SUNNY     70  50  49 W6        30.04S
$$

IAZ055>058-069>071-079>083-090>094-031800-
   SOUTHWEST IOWA

CITY           SKY/WX    TMP DP  RH WIND       PRES   REMARKS
ATLANTIC *     SUNNY     72  55  56 VRB6      30.03R
AUDUBON *      SUNNY     72  57  60 CALM      30.04S
CLARINDA *     SUNNY     73  57  56 N8        30.02F
COUNCIL BLFS * SUNNY     70  55  60 CALM      30.03S
CRESTON *      SUNNY     70  55  60 NE10      30.02S
HARLAN  *      SUNNY     72  55  56 CALM      30.06S
LAMONI         MOSUNNY   73  59  61 NE7       30.00F
RED OAK *      SUNNY     73  54  49 NE7G13    30.02S
SHENANDOAH *   SUNNY     73  55  53 VRB5      30.02S
$$

IAZ047>049-059>061-072>074-084-031800-
   CENTRAL IOWA

CITY           SKY/WX    TMP DP  RH WIND       PRES   REMARKS
AMES           SUNNY     73  56  54 NE3       30.01S
ANKENY *       SUNNY     72  57  60 CALM      30.01S
CHARITON *     MOSUNNY   72  57  60 CALM      30.01S
DES MOINES     MOSUNNY   75  54  47 E6        30.01R
GRINNELL*      SUNNY     72  55  56 NE3       30.02S
KNOXVILLE *    SUNNY     72  54  53 VRB6G12   30.00S
MARSHALLTOWN   SUNNY     73  55  53 VRB6      30.00S
PELLA *        SUNNY     73  59  60 E5        30.02S
PERRY *          N/A     72  55  56 CALM      30.03S
$$

IAZ004>006-015-016-023>025-035-036-031800-
   NORTH CENTRAL IOWA

CITY           SKY/WX    TMP DP  RH WIND       PRES   REMARKS
ALGONA *       SUNNY     72  54  53 VRB5      30.02S
CLARION *      SUNNY     72  55  56 CALM      30.02S
ESTHERVILLE    SUNNY     72  57  59 VRB3      30.01S
FORT DODGE *   SUNNY     72  55  56 CALM      30.03S
MASON CITY     SUNNY     73  57  57 VRB6      30.02F
FOREST CITY *  SUNNY     70  55  60 CALM      30.01S
IOWA FALLS *     N/A     72  55  56 CALM      30.02F
$$

IAZ007>011-017>019-026>030-037>042-050>054-066-031800-
   NORTHEAST IOWA

CITY           SKY/WX    TMP DP  RH WIND       PRES   REMARKS
CEDAR RAPIDS   SUNNY     72  55  55 NE6       29.99S
CHARLES CITY * MOSUNNY   72  59  64 CALM      30.01S
CLINTON *      SUNNY     72  57  60 N5        30.01S
DECORAH *        N/A    N/A N/A N/A MISG        N/A
DUBUQUE        SUNNY     71  53  52 NE5       30.00F
MONTICELLO *   SUNNY     72  45  37 VRB6      30.00S
OELWEIN *      SUNNY     70  54  56 CALM      30.01F
WATERLOO       SUNNY     74  53  48 VRB5      30.00S
$$

IAZ064-065-067-068-078-031800-
   EAST CENTRAL IOWA

CITY           SKY/WX    TMP DP  RH WIND       PRES   REMARKS
DAVENPORT      SUNNY     73  59  61 E7        29.98F
IOWA CITY      SUNNY     73  59  61 NE7       30.00S
MT. PLEASANT * MOSUNNY   75  55  50 NE6       29.98S
MUSCATINE *    SUNNY     73  59  60 VRB6      29.98S
QUAD CITIES    SUNNY     74  59  59 N3        29.97S
$$

IAZ062-063-075>077-085>089-095>099-031800-
   SOUTHEAST IOWA

CITY           SKY/WX    TMP DP  RH WIND       PRES   REMARKS
BURLINGTON     MOSUNNY   75  61  61 VRB6      29.97S
FAIRFIELD *    SUNNY     72  57  60 N9        29.99S
FORT MADISON * SUNNY     72  61  68 N6        29.98S
KEOKUK *       SUNNY     73  63  68 VRB5      29.97S
OSKALOOSA *      N/A     72  57  60 NE3       30.01S
CENTERVILLE *  SUNNY     72  57  60 N5        30.01F
OTTUMWA        MOSUNNY   72  59  63 NE8       29.98S
WASHINGTON *   MOSUNNY   72  59  64 NE6G12    30.01R
$$

ABBREVIATIONS USED IN REMARKS
   TC - TEMPERATURES IN CELSIUS
  WCI - WIND CHILL INDEX
   HX - HEAT INDEX
  VSB - VISIBILITY
$$




USA.gov is the U.S. government's official web portal to all federal, state and local government web resources and services.